NUDTSAT

Last updated on Wed May 31 2023 01:03:46 GMT+0100 (British Summer Time)

1 42787U 17036Y 23150.37527266 .08094306 23455-5 11953-2 0 9999 2 42787 97.1162 199.3051 0013837 253.4226 106.5552 16.34246787330794

Satellite not in orbit